Location: Newark
(45.2500°N, 7.5833°E)
Time: 03:37:04
(UTC+00:00)

Tiros 1 despin weight - Pass Details

Date: 02 February 2020
Orbit: 594 x 642 km, 48.2° (Epoch: 18 February)

Event Time Altitude Azimuth Distance (km) Brightness Sun altitude
Rises 11:50:04 0° 287° (WNW) 2,868 ? 27.8°
Reaches altitude 10° 11:52:21 10° 289° (WNW) 1,970 ? 27.8°
Maximum altitude 11:56:53 78° 15° (NNE) 637 ? 27.8°
Drops below altitude 10° 12:01:30 10° 103° (ESE) 1,997 ? 27.7°
Sets 12:03:50 0° 105° (ESE) 2,910 ? 27.7°
